When you browse on this site, cookies collect data to enhance your experience and personalize the content and advertising you see.
Visit our Privacy Policy to learn more. By continuing to use the site, you agree to this use of cookies and data.

Météo par heure à Valevka

Ce jour, 12 Août, Mercredi

Heure Température Précipitation Vent Pression Humidité
00:00 +13°C° 0 mm 2 m/s 746 mmHg 85%
01:00 +13°C° 0 mm 2 m/s 746 mmHg 85%
02:00 +12°C° 0 mm 2 m/s 746 mmHg 85%
03:00 +12°C° 0 mm 2 m/s 746 mmHg 87%
04:00 +10°C° 0 mm 2 m/s 747 mmHg 90%
05:00 +10°C° 0 mm 2 m/s 747 mmHg 92%
06:00 +11°C° 0 mm 3 m/s 747 mmHg 87%
07:00 +13°C° 0 mm 3 m/s 747 mmHg 82%
08:00 +14°C° 0 mm 3 m/s 747 mmHg 77%
09:00 +16°C° 0 mm 3 m/s 747 mmHg 71%
10:00 +17°C° 0 mm 3 m/s 747 mmHg 65%
11:00 +19°C° 0 mm 3 m/s 747 mmHg 59%
12:00 +19°C° 0 mm 3 m/s 747 mmHg 58%
13:00 +19°C° 0 mm 3 m/s 747 mmHg 57%
14:00 +20°C° 0 mm 2 m/s 747 mmHg 56%
15:00 +20°C° 0 mm 2 m/s 747 mmHg 58%
16:00 +19°C° 0 mm 2 m/s 747 mmHg 60%
17:00 +19°C° 0 mm 3 m/s 747 mmHg 62%
18:00 +18°C° 0 mm 2 m/s 747 mmHg 68%
19:00 +16°C° 0 mm 2 m/s 747 mmHg 73%
20:00 +15°C° 0 mm 2 m/s 747 mmHg 79%
21:00 +14°C° 0 mm 2 m/s 747 mmHg 82%
22:00 +13°C° 0 mm 1 m/s 747 mmHg 84%
23:00 +12°C° 0 mm 1 m/s 747 mmHg 87%

Demain, 13 Août, Jeudi

Heure Température Précipitation Vent Pression Humidité
00:00 +12°C° 0 mm 1 m/s 747 mmHg 88%
01:00 +11°C° 0 mm 1 m/s 747 mmHg 89%
02:00 +11°C° 0 mm 1 m/s 747 mmHg 89%
03:00 +11°C° 0 mm 1 m/s 747 mmHg 90%
04:00 +10°C° 0 mm 1 m/s 746 mmHg 90%
05:00 +10°C° 0 mm 1 m/s 746 mmHg 90%
06:00 +12°C° 0 mm 1 m/s 746 mmHg 85%
07:00 +14°C° 0 mm 1 m/s 746 mmHg 80%
08:00 +15°C° 0 mm 1 m/s 746 mmHg 74%
09:00 +16°C° 0 mm 1 m/s 746 mmHg 69%
10:00 +19°C° 0 mm 1 m/s 746 mmHg 63%
11:00 +20°C° 0 mm 1 m/s 746 mmHg 57%
12:00 +21°C° 0 mm 1 m/s 746 mmHg 56%
13:00 +21°C° 0 mm 1 m/s 745 mmHg 54%
14:00 +22°C° 0 mm 1 m/s 745 mmHg 52%
15:00 +22°C° 0 mm 1 m/s 745 mmHg 54%
16:00 +21°C° 0 mm 1 m/s 745 mmHg 57%
17:00 +21°C° 0 mm 1 m/s 745 mmHg 59%
18:00 +19°C° 0 mm 1 m/s 745 mmHg 65%
19:00 +18°C° 0 mm 1 m/s 745 mmHg 70%
20:00 +15°C° 0 mm 1 m/s 745 mmHg 76%
21:00 +14°C° 0 mm 1 m/s 745 mmHg 79%
22:00 +13°C° 0 mm 0 m/s 745 mmHg 81%
23:00 +12°C° 0 mm 0 m/s 745 mmHg 83%

Après-demain, 14 Août, Vendredi

Heure Température Précipitation Vent Pression Humidité
00:00 +12°C° 0 mm 0 m/s 745 mmHg 84%
01:00 +11°C° 0 mm 0 m/s 745 mmHg 85%
02:00 +11°C° 0 mm 0 m/s 745 mmHg 85%
03:00 +11°C° 0 mm 0 m/s 745 mmHg 86%
04:00 +11°C° 0 mm 0 m/s 745 mmHg 86%
05:00 +10°C° 0 mm 0 m/s 745 mmHg 87%
06:00 +12°C° 0 mm 0 m/s 745 mmHg 82%
07:00 +14°C° 0 mm 0 m/s 745 mmHg 77%
08:00 +18°C° 0 mm 1 m/s 745 mmHg 72%
09:00 +19°C° 0 mm 1 m/s 745 mmHg 68%
10:00 +21°C° 0 mm 1 m/s 746 mmHg 63%
11:00 +22°C° 0 mm 1 m/s 746 mmHg 58%
12:00 +22°C° 0 mm 1 m/s 745 mmHg 57%
13:00 +23°C° 0 mm 1 m/s 745 mmHg 55%
14:00 +23°C° 0 mm 1 m/s 745 mmHg 53%
15:00 +23°C° 0 mm 1 m/s 745 mmHg 54%
16:00 +23°C° 0 mm 1 m/s 745 mmHg 55%
17:00 +23°C° 0 mm 1 m/s 745 mmHg 56%
18:00 +21°C° 0 mm 1 m/s 745 mmHg 63%
19:00 +19°C° 0 mm 1 m/s 745 mmHg 69%
20:00 +16°C° 0 mm 1 m/s 745 mmHg 76%
21:00 +16°C° 0 mm 1 m/s 745 mmHg 78%
22:00 +15°C° 0 mm 1 m/s 745 mmHg 81%
23:00 +14°C° 0 mm 1 m/s 746 mmHg 83%

15 Août, Samedi

Heure Température Précipitation Vent Pression Humidité
00:00 +14°C° 0 mm 1 m/s 746 mmHg 85%
01:00 +14°C° 0 mm 1 m/s 746 mmHg 86%
02:00 +14°C° 0 mm 1 m/s 746 mmHg 87%
03:00 +13°C° 0 mm 1 m/s 746 mmHg 88%
04:00 +13°C° 0 mm 1 m/s 746 mmHg 89%
05:00 +13°C° 0 mm 1 m/s 746 mmHg 90%
06:00 +14°C° 0 mm 1 m/s 746 mmHg 85%
07:00 +16°C° 0 mm 1 m/s 746 mmHg 79%
08:00 +18°C° 0 mm 1 m/s 746 mmHg 74%
09:00 +20°C° 0 mm 1 m/s 747 mmHg 68%
10:00 +20°C° 0 mm 2 m/s 747 mmHg 63%
11:00 +23°C° 0 mm 2 m/s 747 mmHg 57%
12:00 +23°C° 0 mm 2 m/s 747 mmHg 55%
13:00 +24°C° 0 mm 1 m/s 747 mmHg 54%
14:00 +24°C° 0 mm 1 m/s 746 mmHg 52%
15:00 +24°C° 0.1 mm 1 m/s 746 mmHg 56%
16:00 +23°C° 0.1 mm 1 m/s 746 mmHg 60%
17:00 +23°C° 0.1 mm 1 m/s 746 mmHg 63%
18:00 +21°C° 0.1 mm 1 m/s 746 mmHg 70%
19:00 +19°C° 0.1 mm 1 m/s 746 mmHg 76%
20:00 +18°C° 0.1 mm 1 m/s 746 mmHg 82%
21:00 +16°C° 0 mm 1 m/s 746 mmHg 83%
22:00 +15°C° 0 mm 0 m/s 746 mmHg 84%
23:00 +14°C° 0 mm 0 m/s 747 mmHg 85%

16 Août, Dimanche

Heure Température Précipitation Vent Pression Humidité
00:00 +14°C° 0 mm 0 m/s 747 mmHg 86%
01:00 +14°C° 0 mm 0 m/s 747 mmHg 87%
02:00 +13°C° 0 mm 0 m/s 747 mmHg 88%
03:00 +13°C° 0 mm 0 m/s 747 mmHg 88%
04:00 +13°C° 0 mm 0 m/s 747 mmHg 88%
05:00 +12°C° 0 mm 0 m/s 747 mmHg 89%
06:00 +14°C° 0 mm 0 m/s 747 mmHg 85%
07:00 +16°C° 0 mm 0 m/s 747 mmHg 80%
08:00 +19°C° 0 mm 1 m/s 747 mmHg 76%
09:00 +21°C° 0 mm 1 m/s 747 mmHg 71%
10:00 +23°C° 0 mm 1 m/s 748 mmHg 66%
11:00 +24°C° 0 mm 1 m/s 748 mmHg 61%
12:00 +25°C° 0.1 mm 1 m/s 748 mmHg 58%
13:00 +25°C° 0.1 mm 1 m/s 747 mmHg 56%
14:00 +26°C° 0.1 mm 1 m/s 747 mmHg 53%
15:00 +26°C° 0.1 mm 1 m/s 747 mmHg 55%
16:00 +25°C° 0.1 mm 2 m/s 747 mmHg 56%
17:00 +25°C° 0.1 mm 2 m/s 747 mmHg 57%
18:00 +23°C° 0 mm 2 m/s 747 mmHg 64%
19:00 +21°C° 0 mm 1 m/s 747 mmHg 70%
20:00 +20°C° 0 mm 1 m/s 746 mmHg 77%
21:00 +19°C° 0 mm 1 m/s 747 mmHg 78%
22:00 +18°C° 0 mm 1 m/s 747 mmHg 79%
23:00 +18°C° 0 mm 1 m/s 747 mmHg 81%

17 Août, Lundi

Heure Température Précipitation Vent Pression Humidité
00:00 +16°C° 0 mm 1 m/s 747 mmHg 82%
01:00 +16°C° 0 mm 1 m/s 747 mmHg 84%
02:00 +15°C° 0 mm 0 m/s 747 mmHg 85%
03:00 +15°C° 0 mm 1 m/s 747 mmHg 86%
04:00 +15°C° 0 mm 1 m/s 747 mmHg 87%
05:00 +15°C° 0 mm 1 m/s 747 mmHg 88%
06:00 +18°C° 0 mm 1 m/s 747 mmHg 83%
07:00 +19°C° 0 mm 1 m/s 747 mmHg 78%
08:00 +21°C° 0 mm 1 m/s 747 mmHg 73%
09:00 +23°C° 0 mm 1 m/s 747 mmHg 68%
10:00 +24°C° 0 mm 1 m/s 747 mmHg 63%
11:00 +24°C° 0 mm 0 m/s 747 mmHg 58%
12:00 +24°C° 0 mm 0 m/s 747 mmHg 55%
13:00 +25°C° 0 mm 0 m/s 747 mmHg 52%
14:00 +25°C° 0 mm 0 m/s 746 mmHg 49%
15:00 +25°C° 0 mm 0 m/s 746 mmHg 51%
16:00 +25°C° 0 mm 0 m/s 746 mmHg 53%
17:00 +24°C° 0 mm 0 m/s 745 mmHg 55%
18:00 +23°C° 0 mm 0 m/s 745 mmHg 59%
19:00 +21°C° 0 mm 0 m/s 745 mmHg 64%
20:00 +19°C° 0 mm 0 m/s 745 mmHg 69%
21:00 +18°C° 0 mm 0 m/s 745 mmHg 72%
22:00 +18°C° 0 mm 0 m/s 745 mmHg 75%
23:00 +17°C° 0 mm 0 m/s 745 mmHg 78%
Voir plus